"Pseudo-MPEC" for C1FP4X5

Created 2026 Aug 26 0:35:03 UT using Find_Orb

Click here for an explanation of pseudo-MPECs

 
 Astrometry: 
     C1FP4X5*1C2026 08 21.36428323 48 26.989+12 11 03.30   ~8OFo 22.24GVNEOCPV00
     C1FP4X5 1C2026 08 21.36925923 48 27.677+12 10 59.20   ~8OFo 23.44GVNEOCPV00
     C1FP4X5 1C2026 08 21.37421823 48 28.339+12 10 55.38   ~8OFo 22.37GVNEOCPV00
     C1FP4X5 1C2026 08 21.37918023 48 29.056+12 10 51.28   ~8OFo 22.76GVNEOCPV00

Station data:
(V00) Kitt Peak-Bok  (N31.963125 W111.600190)  US/Arizona. Measurers T.
   Beuden, V. F. Carvajal, D. Fay, J. B. Fazekas, D. C. Fuls, A. R. Gibbs, A.
   D. Grauer, H. Gröller, J. K. Hogan, R. A. Kowalski, S. M. Larson, G. J.
   Leonard, D. Rankin, R. L. Seaman, F. C. Shelly, K. W. Wierzchoś. 2.25-m
   reflector + 4x4K mosaic CCD.

Orbital elements:  C1FP4X5
   Perihelion 2026 Oct 26.381732 +/- 35.2 TT =  9:09:41.6 (JD 2461339.881732)
Epoch 2026 Aug 21.0 TT = JDT 2461273.5   Earth MOID: 0.0256   Ve: 0.0189
M 323.152780393 +/- 30              (J2000 ecliptic)             AutoNEOCP
n   0.555080721 +/- 0.424           Peri.  293.342655 +/- 60
a   1.466330787 +/- 0.747           Node   159.936706 +/- 37
e   0.68001370 +/- 0.25             Incl.   19.681966 +/- 11
P   1.776/648.542d         H 24.62  G  0.15   U 12.2  SR
q 0.469205754 +/- 0.417    Q 2.463455820 +/- 29.5
From 4 observations 2026 Aug. 21 (21.5 min); mean residual 0".13
Residuals in arcseconds: 
260821 V00  .05+  .03+    260821 V00  .28-  .08+    
260821 V00  .06+  .08-    260821 V00  .17+  .02-    

Ephemerides (geocentric):
Date (UTC) HH   RA             Dec           delta  r     elong  mag " sig PA
---- --------  ------------   ------------  ------ ------ -----  --- --------
2026 08 26 01  00 04 41.242   +10 29 42.53  .15132 1.1393 146.1 22.1  59d  83
2026 08 26 02  00 04 53.256   +10 28 18.80  .15075 1.1388 146.1 22.1  59d  82
2026 08 26 03  00 05 05.354   +10 26 54.33  .15017 1.1383 146.1 22.1  60d  82
2026 08 26 04  00 05 17.536   +10 25 29.11  .14960 1.1379 146.1 22.1  60d  82
2026 08 26 05  00 05 29.805   +10 24 03.14  .14903 1.1374 146.1 22.1  60d  83
2026 08 26 06  00 05 42.160   +10 22 36.41  .14846 1.1369 146.1 22.0  61d  83
2026 08 26 07  00 05 54.602   +10 21 08.91  .14788 1.1364 146.2 22.0  61d  83
2026 08 26 08  00 06 07.133   +10 19 40.63  .14731 1.1359 146.2 22.0  61d  83
2026 08 26 09  00 06 19.754   +10 18 11.57  .14674 1.1354 146.2 22.0  61d  83
2026 08 26 10  00 06 32.466   +10 16 41.70  .14617 1.1349 146.2 22.0  62d  83
2026 08 26 11  00 06 45.269   +10 15 11.03  .14560 1.1344 146.2 22.0  62d  83
2026 08 26 12  00 06 58.165   +10 13 39.55  .14502 1.1339 146.2 22.0  62d  83
2026 08 26 13  00 07 11.154   +10 12 07.24  .14445 1.1334 146.2 22.0  62d  83
2026 08 26 14  00 07 24.239   +10 10 34.10  .14388 1.1330 146.2 22.0  62d  83
2026 08 26 15  00 07 37.419   +10 09 00.11  .14331 1.1325 146.2 22.0  62d  83
2026 08 26 16  00 07 50.696   +10 07 25.28  .14274 1.1320 146.3 22.0  63d  83
2026 08 26 17  00 08 04.072   +10 05 49.58  .14217 1.1315 146.3 21.9  63d  83
2026 08 26 18  00 08 17.547   +10 04 13.00  .14160 1.1310 146.3 21.9  63d  83
2026 08 26 19  00 08 31.122   +10 02 35.55  .14103 1.1305 146.3 21.9  63d  83
2026 08 26 20  00 08 44.798   +10 00 57.20  .14046 1.1300 146.3 21.9  63d  83
2026 08 26 21  00 08 58.578   +09 59 17.95  .13989 1.1295 146.3 21.9  63d  83
2026 08 26 22  00 09 12.461   +09 57 37.78  .13932 1.1290 146.3 21.9  64d  83
2026 08 26 23  00 09 26.450   +09 55 56.69  .13876 1.1285 146.3 21.9  64d  83
2026 08 27 00  00 09 40.545   +09 54 14.66  .13819 1.1280 146.3 21.9  64d  83
2026 08 27 01  00 09 54.748   +09 52 31.68  .13762 1.1275 146.3 21.9  64d  83
2026 08 27 02  00 10 09.060   +09 50 47.75  .13705 1.1271 146.4 21.9  64d  83
2026 08 27 03  00 10 23.482   +09 49 02.84  .13648 1.1266 146.4 21.8  64d  83
2026 08 27 04  00 10 38.016   +09 47 16.95  .13591 1.1261 146.4 21.8  64d  83
2026 08 27 05  00 10 52.662   +09 45 30.07  .13535 1.1256 146.4 21.8  65d  83
2026 08 27 06  00 11 07.423   +09 43 42.18  .13478 1.1251 146.4 21.8  65d  83
2026 08 27 07  00 11 22.300   +09 41 53.28  .13421 1.1246 146.4 21.8  65d  83
2026 08 27 08  00 11 37.294   +09 40 03.34  .13365 1.1241 146.4 21.8  65d  83
2026 08 27 09  00 11 52.406   +09 38 12.36  .13308 1.1236 146.4 21.8  65d  83
2026 08 27 10  00 12 07.638   +09 36 20.32  .13252 1.1231 146.4 21.8  65d  83
2026 08 27 11  00 12 22.992   +09 34 27.21  .13195 1.1226 146.4 21.8  65d  83
2026 08 27 12  00 12 38.468   +09 32 33.02  .13138 1.1221 146.4 21.8  65d  83
2026 08 27 13  00 12 54.069   +09 30 37.73  .13082 1.1216 146.4 21.7  65d  83
2026 08 27 14  00 13 09.796   +09 28 41.33  .13025 1.1211 146.4 21.7  65d  83
2026 08 27 15  00 13 25.651   +09 26 43.81  .12969 1.1206 146.4 21.7  65d  83
2026 08 27 16  00 13 41.635   +09 24 45.15  .12912 1.1201 146.4 21.7  65d  83
2026 08 27 17  00 13 57.749   +09 22 45.33  .12856 1.1197 146.4 21.7  65d  83
2026 08 27 18  00 14 13.996   +09 20 44.35  .12800 1.1192 146.4 21.7  66d  83
2026 08 27 19  00 14 30.377   +09 18 42.18  .12743 1.1187 146.4 21.7  66d  83
2026 08 27 20  00 14 46.894   +09 16 38.82  .12687 1.1182 146.4 21.7  66d  83
2026 08 27 21  00 15 03.548   +09 14 34.24  .12631 1.1177 146.4 21.7  66d  83
2026 08 27 22  00 15 20.342   +09 12 28.43  .12574 1.1172 146.5 21.7  66d  83
2026 08 27 23  00 15 37.277   +09 10 21.38  .12518 1.1167 146.5 21.6  66d  83
2026 08 28 00  00 15 54.354   +09 08 13.06  .12462 1.1162 146.5 21.6  66d  83